Weather History for KXPY - April, 2014

Change the Weather History Date:

Thursday, April 3, 2014

  Actual Average Record
Temperature  
Mean Temperature 72 °F -  
Max Temperature 75 °F - - ()
Min Temperature 68 °F - - ()
Cooling Degree Days 6    
Growing Degree Days 22 (Base 50)    
Moisture  
Dew Point 69 °F    
Average Humidity 91    
Maximum Humidity 100    
Minimum Humidity 78    
Precipitation  
Precipitation 0.00 in - - ()
Sea Level Pressure  
Sea Level Pressure 29.99 in    
Wind  
Wind Speed 11 mph (SE)    
Max Wind Speed 17 mph    
Max Gust Speed 23 mph    
Visibility 5 miles    
Events      
T = Trace of Precipitation, MM = Missing Value Source: NWS Daily Summary

Daily Weather History Graph

Daily Weather History Graph

Search for Another Location

Airport or City:

Trip Planner

Search our weather history database for the weather conditions in past years. The results will help you decide how hot, cold, wet, or windy it might be!

Date:

Astronomy

Apr. 03, 2014 Rise Set
Actual Time 6:48 AM CDT 7:20 PM CDT
Civil Twilight 6:24 AM CDT 7:44 PM CDT
Nautical Twilight 5:56 AM CDT 8:12 PM CDT
Astronomical Twilight 5:27 AM CDT 8:40 PM CDT
Moon 9:32 AM CDT (4/3) 11:23 PM CDT (4/3)
Length of Visible Light 13h 19m
Length of Day
12h 32m
Waxing Crescent, 17% of the Moon is Illuminated
Apr 3
Waxing Crescent
Apr 7
First Quarter
Apr 15
Full
Apr 22
Last Quarter
Apr 29
New

Hourly Weather History & Observations

Time (CDT) Temp. Dew Point Humidity Pressure Visibility Wind Dir Wind Speed Gust Speed Precip Events Conditions
12:15 AM 69.8 °F 68.0 °F 94% 30.04 in 6.0 mi SE 11.5 mph - N/A   Partly Cloudy
12:35 AM 69.8 °F 68.0 °F 94% 30.04 in 6.0 mi SE 11.5 mph - N/A   Partly Cloudy
12:55 AM 69.8 °F 68.0 °F 94% 30.03 in 5.0 mi SE 12.7 mph - N/A   Partly Cloudy
1:15 AM 69.8 °F 68.0 °F 94% 30.02 in 6.0 mi SE 13.8 mph - N/A   Clear
1:35 AM 69.8 °F 68.0 °F 94% 30.02 in 5.0 mi SE 10.4 mph 17.3 mph N/A   Scattered Clouds
1:55 AM 69.8 °F 68.0 °F 94% 30.01 in 5.0 mi SE 12.7 mph - N/A   Partly Cloudy
2:15 AM 69.8 °F 68.0 °F 94% 30.00 in 5.0 mi SE 12.7 mph - N/A   Clear
2:35 AM 69.8 °F 68.0 °F 94% 29.99 in 5.0 mi SE 13.8 mph - N/A   Scattered Clouds
2:55 AM 69.8 °F 68.0 °F 94% 29.99 in 4.0 mi SE 12.7 mph - N/A   Scattered Clouds
3:15 AM 69.8 °F 68.0 °F 94% 29.99 in 4.0 mi SE 10.4 mph - N/A   Partly Cloudy
3:35 AM 69.8 °F 68.0 °F 94% 30.00 in 4.0 mi SE 9.2 mph - N/A   Partly Cloudy
3:55 AM 69.8 °F 68.0 °F 94% 29.99 in 4.0 mi SE 9.2 mph - N/A   Mostly Cloudy
4:15 AM 69.8 °F 68.0 °F 94% 29.99 in 4.0 mi SE 9.2 mph - N/A   Mostly Cloudy
4:35 AM 69.8 °F 68.0 °F 94% 29.99 in 4.0 mi SE 10.4 mph - N/A   Partly Cloudy
4:55 AM 69.8 °F 68.0 °F 94% 30.00 in 4.0 mi SE 10.4 mph - N/A   Mostly Cloudy
5:15 AM 69.8 °F 68.0 °F 94% 30.00 in 4.0 mi SE 9.2 mph - N/A   Partly Cloudy
5:35 AM 69.8 °F 68.0 °F 94% 30.00 in 4.0 mi SE 9.2 mph - N/A   Clear
5:55 AM 69.8 °F 68.0 °F 94% 30.00 in 4.0 mi SE 9.2 mph - N/A   Mostly Cloudy
6:15 AM 69.8 °F 68.0 °F 94% 30.00 in 3.0 mi SE 9.2 mph - N/A   Mostly Cloudy
6:35 AM 69.8 °F 68.0 °F 94% 30.00 in 3.0 mi SE 10.4 mph - N/A   Mostly Cloudy
6:55 AM 69.8 °F 68.0 °F 94% 30.01 in 3.0 mi SE 10.4 mph - N/A   Scattered Clouds
7:15 AM 69.8 °F 68.0 °F 94% 30.02 in 2.0 mi SE 9.2 mph - N/A   Scattered Clouds
7:35 AM 68.0 °F 68.0 °F 100% 30.02 in 0.5 mi SE 9.2 mph - N/A   Mostly Cloudy
7:55 AM 68.0 °F 68.0 °F 100% 30.02 in 2.0 mi SE 9.2 mph - N/A   Scattered Clouds
8:15 AM 68.0 °F 68.0 °F 100% 30.02 in 2.5 mi SE 10.4 mph - N/A   Partly Cloudy
8:35 AM 69.8 °F 68.0 °F 94% 30.03 in 3.0 mi SE 11.5 mph - N/A   Clear
8:55 AM 69.8 °F 68.0 °F 94% 30.03 in 3.0 mi SE 11.5 mph - N/A   Clear
9:15 AM 69.8 °F 68.0 °F 94% 30.03 in 4.0 mi SE 11.5 mph - N/A   Clear
9:35 AM 69.8 °F 69.8 °F 100% 30.03 in 4.0 mi SE 11.5 mph - N/A   Clear
9:55 AM 71.6 °F 69.8 °F 94% 30.03 in 4.0 mi SSE 12.7 mph - N/A   Clear
10:15 AM 71.6 °F 69.8 °F 94% 30.03 in 5.0 mi SE 12.7 mph - N/A   Clear
10:35 AM 71.6 °F 69.8 °F 94% 30.03 in 6.0 mi SE 10.4 mph - N/A   Clear
10:55 AM 71.6 °F 69.8 °F 94% 30.03 in 5.0 mi SE 9.2 mph - N/A   Clear
11:15 AM 71.6 °F 69.8 °F 94% 30.02 in 6.0 mi SE 10.4 mph - N/A   Clear
11:35 AM 73.4 °F 69.8 °F 88% 30.01 in 6.0 mi SSE 12.7 mph 20.7 mph N/A   Clear
11:55 AM 73.4 °F 68.0 °F 83% 30.01 in 6.0 mi SE 15.0 mph 21.9 mph N/A   Haze
12:15 PM 73.4 °F 68.0 °F 83% 30.00 in 6.0 mi SE 10.4 mph 17.3 mph N/A   Haze
12:35 PM 73.4 °F 68.0 °F 83% 30.00 in 6.0 mi SE 11.5 mph 18.4 mph N/A   Haze
12:55 PM 73.4 °F 69.8 °F 88% 30.00 in 7.0 mi SE 10.4 mph 18.4 mph N/A   Clear
1:15 PM 73.4 °F 68.0 °F 83% 29.99 in 6.0 mi SE 13.8 mph 20.7 mph N/A   Haze
1:35 PM 73.4 °F 68.0 °F 83% 29.99 in 7.0 mi SSE 11.5 mph 20.7 mph N/A   Clear
1:55 PM 73.4 °F 68.0 °F 83% 29.98 in 6.0 mi SE 12.7 mph 21.9 mph N/A   Haze
2:15 PM 75.2 °F 69.8 °F 83% 29.97 in 6.0 mi SE 15.0 mph 20.7 mph N/A   Haze
2:35 PM 75.2 °F 68.0 °F 78% 29.97 in 7.0 mi SE 17.3 mph 23.0 mph N/A   Clear
2:55 PM 75.2 °F 69.8 °F 83% 29.96 in 7.0 mi SE 12.7 mph 20.7 mph N/A   Clear
3:15 PM 75.2 °F 69.8 °F 83% 29.95 in 7.0 mi SSE 12.7 mph 19.6 mph N/A   Clear
3:35 PM 73.4 °F 68.0 °F 83% 29.95 in 8.0 mi SE 12.7 mph 20.7 mph N/A   Clear
3:55 PM 73.4 °F 69.8 °F 88% 29.94 in 8.0 mi SE 12.7 mph 20.7 mph N/A   Clear
4:15 PM 75.2 °F 69.8 °F 83% 29.94 in 7.0 mi SE 12.7 mph 19.6 mph N/A   Clear
4:35 PM 75.2 °F 69.8 °F 83% 29.94 in 6.0 mi SE 12.7 mph - N/A   Haze
4:55 PM 73.4 °F 69.8 °F 88% 29.95 in 7.0 mi SSE 9.2 mph 16.1 mph N/A   Clear
5:15 PM 73.4 °F 69.8 °F 88% 29.95 in 6.0 mi SE 11.5 mph 17.3 mph N/A   Haze
5:35 PM 73.4 °F 69.8 °F 88% 29.95 in 6.0 mi SE 10.4 mph 17.3 mph N/A   Haze
5:55 PM 73.4 °F 69.8 °F 88% 29.95 in 7.0 mi SE 10.4 mph 17.3 mph N/A   Clear
6:15 PM 73.4 °F 68.0 °F 83% 29.95 in 6.0 mi SE 10.4 mph - N/A   Clear
6:35 PM 71.6 °F 68.0 °F 88% 29.94 in 6.0 mi SE 11.5 mph - N/A   Clear
6:55 PM 71.6 °F 68.0 °F 88% 29.94 in 6.0 mi SE 9.2 mph - N/A   Clear
7:15 PM 71.6 °F 68.0 °F 88% 29.94 in 5.0 mi SE 8.1 mph 13.8 mph N/A   Clear
7:35 PM 71.6 °F 68.0 °F 88% 29.94 in 6.0 mi SE 9.2 mph - N/A   Clear
7:55 PM 71.6 °F 68.0 °F 88% 29.94 in 6.0 mi SE 9.2 mph - N/A   Clear
8:15 PM 71.6 °F 68.0 °F 88% 29.94 in 6.0 mi SE 9.2 mph - N/A   Clear
8:55 PM 71.6 °F 68.0 °F 88% 29.95 in 6.0 mi SE 9.2 mph - N/A   Clear
9:15 PM 69.8 °F 68.0 °F 94% 29.94 in 6.0 mi SE 11.5 mph - N/A   Clear
9:35 PM 69.8 °F 68.0 °F 94% 29.94 in 6.0 mi SE 10.4 mph - N/A   Clear
11:15 PM 71.6 °F 69.8 °F 94% 29.93 in 6.0 mi SE 11.5 mph 17.3 mph N/A   Clear
11:35 PM 71.6 °F 69.8 °F 94% 29.92 in 6.0 mi SSE 15.0 mph - N/A   Clear
11:55 PM 71.6 °F 69.8 °F 94% 29.92 in 6.0 mi SSE 12.7 mph 19.6 mph N/A   Clear